Regional Weather Roundup
Issued by NWS Albany, NY

Home | Current Version | Previous Version | Graphics & Text | Print | Product List | Glossary Off
Versions: 1 2 3 4 5 6 7 8 9 10 11 12 13 14 15 16 17 18 19 20 21 22 23 24 25 26 27 28 29 30 31 32 33 34 35 36 37 38 39 40 41 42 43 44 45 46 47 48 49 50

000
ASUS41 KALY 231710
RWRALY

NEW YORK STATE HOURLY WEATHER ROUNDUP
NATIONAL WEATHER SERVICE ALBANY NY
100 PM EDT SUN APR 23 2017

NOTE: "FAIR" INDICATES FEW OR NO CLOUDS BELOW 12,000 FEET WITH NO
SIGNIFICANT WEATHER AND/OR NO OBSTRUCTIONS TO VISIBILITY.

NYZ032-033-038>043-046>054-057>066-NYZ062>081-082-084-231800-
EAST


CITY           SKY/WX    TMP DP  RH WIND       PRES   REMARKS
ALBANY         MOSUNNY   61  33  35 E5        30.09F
GLENS FALLS    SUNNY     59  37  44 MISG      30.07F
POUGHKEEPSIE   SUNNY     59  35  40 W3        30.10F
NEWBURGH       MOSUNNY   59  39  47 VRB6      30.12F
MONTGOMERY     SUNNY     61  34  36 CALM      30.10F
WHITE PLAINS   SUNNY     61  37  41 NW8       30.11S
ISLIP          MOSUNNY   60  36  40 VRB6      30.11F
NEW YORK CITY  MOSUNNY   61  36  39 NE3       30.12S
CENTRAL PARK   SUNNY     61  35  37 CALM      30.15S
$$

NYZ005>009-017-018-044>046-055-056-231800-
CENTRAL


CITY           SKY/WX    TMP DP  RH WIND       PRES   REMARKS
FULTON         SUNNY     60  37  42 VRB5      30.10F
SYRACUSE       MOSUNNY   59  33  37 SW7       30.09F
ROME           SUNNY     58  36  43 NW7       30.11F
ELMIRA         SUNNY     63  34  33 CALM      30.08F
BINGHAMTON     SUNNY     57  33  40 VRB6      30.09F
MONTICELLO     SUNNY     57  34  41 SW5       30.11S
$$

NYZ026>034-041>043-087-231800-
NORTH


CITY           SKY/WX    TMP DP  RH WIND       PRES   REMARKS
WATERTOWN      SUNNY     54  40  59 W14       30.10F
FORT DRUM      NOT AVBL
OGDENSBURG     FAIR      60  37  41 SW17G24   30.05F
MASSENA        SUNNY     61  38  42 SW14G22   30.04F
SARANAC LAKE   SUNNY     57  35  43 S9        30.03F
PLATTSBURGH    SUNNY     55  36  48 SE13      30.05F
$$

NYZ001>004-010>016-019>021-085-231800-
WEST


CITY           SKY/WX    TMP DP  RH WIND       PRES   REMARKS
NIAGARA FALLS  SUNNY     60  35  39 VRB5      30.09F
BUFFALO        MOSUNNY   58  29  33 W14       30.10F
DUNKIRK        SUNNY     51  38  60 NW8       30.13S
JAMESTOWN      SUNNY     57  27  30 CALM      30.10F
WELLSVILLE     SUNNY     63  30  28 MISG      30.10F
ROCHESTER      MOSUNNY   61  38  42 W5        30.09F
PENN YAN       SUNNY     60  37  42 VRB5      30.09F
$$

             KEY
       WCI = WIND CHILL INDEX
       VSB = VISIBILITY
       HX  = HEAT INDEX
$$



USA.gov is the U.S. government's official web portal to all federal, state and local government web resources and services.